Wind_Speed
26 25 26 26 26 25 24 22 22 21 20 18 17 17 17 16 15 15 15 14 13 12 12 11 11 11 11 10 10 10 10 10 11 11 12 13 14 15 16 17 18 19 20 21
26 26 26 27 27 27 26 25 24 23 22 20 19 18 18 17 16 16 14 14 14 14 14 13 12 12 12 12 11 12 12 12 12 12 13 14 15 16 16 17 18 20 21 22
28 28 28 29 28 28 28 27 26 25 24 22 21 20 19 19 19 18 17 17 16 15 14 14 14 13 13 13 13 14 14 14 15 15 15 16 17 17 17 18 19 20 21 21
32 31 32 31 30 29 30 30 29 27 26 24 23 22 22 21 21 21 20 19 18 18 16 16 15 14 14 14 15 15 16 16 16 16 17 17 17 17 17 18 19 20 21 22
35 35 35 33 32 31 31 31 31 29 28 26 25 25 24 23 23 23 22 21 20 19 18 17 16 16 16 16 16 17 16 17 18 18 18 18 18 19 18 19 20 20 23 24
38 37 37 34 33 33 33 32 30 29 28 27 26 25 24 24 24 24 24 23 22 21 20 19 18 18 18 19 19 19 19 18 18 18 18 18 19 19 19 20 21 22 23 24
37 38 37 35 34 34 33 32 29 29 28 28 27 26 26 25 25 25 25 24 23 23 22 21 21 21 21 20 20 21 21 20 20 20 19 20 20 20 20 21 22 22 24 24
36 37 37 35 34 34 33 32 30 29 28 28 27 27 26 26 25 24 24 24 24 24 23 23 23 23 23 23 22 21 21 21 20 21 22 22 22 22 21 22 23 24 24 25
36 35 34 34 33 32 31 31 30 29 28 28 26 26 26 25 24 24 24 24 24 23 23 23 23 22 23 23 22 22 22 21 21 22 22 23 24 24 23 23 25 25 25 25
34 33 33 32 32 31 30 29 28 28 27 27 26 26 25 24 24 24 24 24 24 23 23 23 23 23 23 23 23 22 22 21 22 23 23 24 23 22 23 24 24 24 25 26
32 31 31 31 30 29 29 28 26 26 26 25 25 25 25 24 23 24 24 24 24 24 23 23 23 22 21 21 21 22 22 22 23 23 24 24 23 22 21 22 22 23 25 26
31 30 28 28 27 27 27 26 25 25 25 24 24 24 24 24 23 22 23 23 23 23 23 23 22 21 21 20 21 21 21 22 22 23 23 23 23 24 24 24 24 25 26 26
29 29 28 27 26 26 26 25 25 23 23 23 23 22 22 22 22 21 20 20 20 20 20 21 21 20 20 20 20 21 21 22 22 23 23 23 22 22 23 24 24 25 27 28
27 27 27 26 25 25 25 24 24 23 23 23 23 22 22 21 21 21 20 19 19 19 19 19 19 19 20 20 20 21 20 20 21 22 22 22 22 23 23 24 25 26 27 29
25 25 24 24 24 24 24 23 23 22 22 22 22 21 20 20 20 19 19 19 18 18 18 17 17 17 17 18 19 19 19 20 21 21 22 23 23 24 24 25 26 27 28 29
23 22 21 22 22 21 21 20 20 19 19 20 19 19 18 18 17 17 16 16 16 16 16 16 16 16 17 18 18 18 18 19 20 21 22 22 23 24 24 25 26 27 28 29
22 20 20 20 20 20 19 18 17 17 17 17 17 17 16 16 15 14 14 14 14 14 14 14 14 14 15 16 17 17 18 18 19 20 21 22 23 24 25 26 27 28 29 31
20 19 18 18 17 17 17 17 16 16 15 14 14 14 14 14 14 13 12 12 13 13 13 14 14 14 14 15 16 16 17 18 19 20 21 22 24 25 26 27 28 29 30 31
18 17 17 16 16 16 15 15 15 14 14 13 13 13 13 13 13 13 12 12 12 13 13 14 15 15 16 16 17 17 17 18 19 21 22 23 24 25 27 28 29 31 32 34
16 16 15 15 14 15 15 14 14 13 13 13 12 12 12 12 12 13 13 13 13 13 13 14 15 16 16 16 16 17 18 19 20 21 23 24 25 27 28 30 31 32 34 35
15 15 14 13 13 13 13 13 13 12 12 11 11 11 11 11 11 11 11 12 13 13 14 14 14 14 14 15 17 18 19 21 22 24 25 26 27 29 30 31 32 34 35 35
14 14 13 13 13 12 12 12 12 12 11 11 10 10 10 10 10 10 10 10 11 11 12 12 13 14 15 16 18 19 21 23 24 25 27 28 29 30 31 32 33 34 34 34
14 14 14 14 13 12 11 11 11 11 10 10 10 9 9 9 9 8 8 9 9 11 12 13 14 16 17 19 20 22 23 24 25 27 28 29 30 31 32 33 33 33 33 33
14 14 13 13 13 11 10 9 9 9 9 9 8 8 8 8 8 8 9 10 12 13 15 16 17 19 20 22 23 25 26 26 27 29 30 30 31 31 32 33 33 32 32 32
13 13 12 12 11 10 9 9 8 8 8 8 7 7 8 8 10 11 12 13 15 16 17 19 20 22 23 25 26 27 27 28 29 29 29 30 31 31 32 32 31 31 30 29
12 12 11 11 11 10 9 8 7 7 7 7 7 8 9 11 12 13 15 16 17 19 20 22 23 24 26 26 27 27 27 28 28 29 29 30 30 30 30 29 28 28 28 27
11 11 11 10 10 9 8 7 6 7 7 8 9 10 12 13 14 16 17 18 20 21 23 24 25 26 26 26 27 27 28 28 28 29 29 29 29 28 27 26 26 26 26 26
Wind_Direction
224 225 230 236 241 245 248 252 256 261 265 266 263 263 268 269 270 273 270 273 280 283 286 284 283 285 282 273 270 269 267 264 265 263 255 253 251 251 250 248 247 246 245 245
230 228 231 236 241 246 251 253 257 262 265 265 267 266 266 268 272 274 274 274 279 281 285 283 282 283 275 269 267 267 267 265 262 261 257 256 255 255 253 252 252 252 250 249
236 235 236 237 241 247 251 254 258 261 264 268 268 269 270 271 271 275 275 273 274 281 282 281 279 278 275 270 266 264 264 265 265 263 260 260 260 257 257 256 257 258 255 255
240 240 242 243 245 248 251 255 259 262 265 267 269 270 270 271 271 273 273 272 277 279 282 282 281 276 276 274 266 263 261 262 265 262 260 260 259 260 260 261 262 260 257 257
241 242 245 247 248 251 253 256 260 262 264 266 268 268 269 270 270 273 275 273 274 276 280 276 275 274 272 273 270 264 261 263 262 264 261 259 259 260 260 261 260 260 259 258
240 243 246 249 251 254 256 258 260 262 263 265 266 265 267 268 269 272 272 270 271 272 275 272 270 270 270 270 269 267 263 262 264 265 263 261 261 262 262 262 263 261 261 260
239 243 247 249 252 255 257 259 260 261 262 263 266 266 266 267 267 269 268 268 268 269 270 270 269 268 268 269 269 267 263 261 260 261 261 262 264 262 265 265 266 264 263 263
240 243 245 248 252 254 257 258 259 261 261 262 264 265 264 263 264 266 266 266 266 268 269 270 269 268 268 266 266 264 261 259 259 258 258 259 261 262 264 266 268 267 267 265
242 245 247 249 252 253 254 256 258 260 261 262 263 263 262 260 261 263 264 262 263 266 267 268 268 268 269 265 263 260 256 256 257 258 262 264 264 263 266 268 270 272 270 269
242 245 246 248 249 251 251 254 257 258 260 261 262 262 261 262 261 261 262 260 262 263 266 267 268 270 267 262 258 256 254 254 256 259 263 265 265 268 269 269 270 272 272 269
241 243 244 246 248 248 250 251 253 255 257 260 261 261 261 261 260 260 260 261 262 264 266 268 268 266 261 259 256 256 257 258 258 258 262 263 264 267 271 271 272 272 272 273
237 238 240 242 245 245 246 248 251 255 256 258 260 260 260 260 263 263 262 261 263 264 264 264 264 261 258 256 256 256 256 258 260 260 263 266 268 271 271 271 271 273 274 275
236 236 237 239 242 243 245 247 248 251 253 254 255 256 257 259 261 263 263 262 263 262 262 262 260 260 257 256 255 255 257 259 260 260 261 265 267 268 271 272 274 276 277 278
235 235 235 237 241 242 245 245 246 250 253 253 253 255 257 257 259 262 261 259 259 260 261 262 261 259 255 256 257 257 258 259 260 262 262 266 268 269 272 275 276 278 279 280
235 234 234 235 238 240 243 245 247 248 251 251 252 253 252 253 256 257 256 255 256 259 260 259 258 256 254 257 260 259 259 261 264 266 268 269 272 272 273 276 278 279 281 282
229 229 231 233 235 237 239 241 242 243 246 247 246 246 248 251 251 251 251 251 253 254 254 253 255 255 256 259 260 260 261 264 265 265 267 270 272 275 276 279 282 283 284 285
224 226 227 228 230 232 232 234 236 239 241 241 240 240 241 239 239 241 245 247 247 247 248 250 251 255 259 260 262 264 265 266 267 269 272 275 277 279 281 283 285 287 288 289
218 219 218 219 223 226 226 227 228 230 233 234 233 231 230 231 232 236 240 242 242 244 247 251 252 255 259 262 265 267 267 269 272 276 280 282 284 285 286 287 289 291 292 294
209 210 211 213 213 215 218 219 221 223 223 222 224 222 222 225 229 236 239 241 243 245 249 254 256 259 263 267 271 274 276 277 279 281 284 285 286 288 289 290 292 293 294 295
205 204 204 206 209 210 210 212 214 214 214 217 217 219 223 226 232 239 242 243 245 250 253 257 261 263 265 269 273 277 279 281 284 286 287 289 291 292 293 294 295 296 296 297
196 195 197 198 199 199 200 204 205 204 209 215 220 223 226 229 233 238 241 242 246 252 258 263 264 266 269 274 278 281 283 286 288 289 291 292 293 294 295 297 298 299 300 301
185 188 190 189 188 190 194 197 197 199 205 213 218 221 227 232 238 242 245 248 251 256 261 264 266 270 275 279 282 285 287 289 290 291 293 294 296 297 298 299 301 302 303 304
177 177 177 178 180 181 185 191 194 199 205 210 215 221 228 234 242 249 257 263 267 272 277 279 281 284 285 287 289 291 293 295 296 297 298 299 301 302 303 303 304 305 306 307
172 173 173 175 177 180 185 189 196 204 210 215 221 228 236 246 256 266 270 273 276 281 285 288 289 290 291 293 295 296 297 298 299 300 301 302 303 304 304 305 305 306 306 307
166 169 170 172 178 184 189 194 199 204 211 221 230 240 250 259 266 272 276 280 283 285 288 290 292 293 294 295 296 297 298 300 301 302 303 304 305 305 306 306 307 307 307 308
165 168 172 176 181 185 190 197 204 211 219 230 243 255 264 271 276 280 282 284 288 291 292 293 294 295 295 297 298 299 300 301 302 303 305 306 307 307 307 308 308 308 309 310
166 170 173 177 181 184 189 198 213 228 241 252 261 269 274 277 280 283 286 290 292 293 294 295 296 297 298 299 299 300 301 302 303 304 305 306 307 307 308 309 310 311 311 312
Height
5801 5804 5807 5809 5812 5814 5817 5819 5821 5823 5825 5827 5828 5829 5830 5831 5832 5832 5833 5833 5833 5833 5832 5832 5831 5831 5830 5830 5831 5831 5831 5831 5832 5832 5833 5833 5834 5835 5836 5837 5838 5839 5841 5842
5796 5798 5801 5804 5806 5809 5811 5814 5816 5818 5820 5822 5823 5825 5826 5827 5828 5828 5829 5829 5829 5829 5829 5829 5828 5828 5827 5827 5827 5828 5828 5829 5829 5829 5829 5830 5831 5831 5832 5833 5834 5835 5836 5837
5790 5793 5796 5798 5801 5804 5806 5808 5811 5813 5816 5817 5818 5820 5821 5822 5823 5824 5824 5825 5825 5824 5824 5825 5824 5824 5824 5824 5824 5824 5825 5825 5825 5826 5826 5827 5827 5827 5828 5829 5829 5830 5831 5832
5784 5788 5789 5795 5796 5798 5801 5803 5805 5807 5809 5811 5813 5814 5815 5816 5817 5818 5819 5820 5820 5820 5820 5820 5820 5820 5820 5820 5820 5820 5821 5821 5821 5821 5822 5822 5822 5823 5823 5824 5825 5825 5826 5827
5776 5779 5782 5787 5789 5792 5794 5796 5799 5801 5803 5805 5806 5808 5810 5811 5812 5812 5813 5814 5814 5815 5815 5815 5815 5815 5815 5815 5815 5816 5816 5816 5816 5816 5817 5817 5818 5819 5819 5820 5820 5820 5821 5821
5768 5772 5775 5780 5783 5785 5788 5790 5792 5794 5796 5798 5800 5802 5804 5804 5805 5806 5806 5807 5808 5809 5809 5810 5810 5809 5809 5809 5809 5810 5810 5810 5811 5811 5812 5813 5813 5814 5814 5814 5814 5815 5815 5815
5760 5764 5767 5772 5775 5778 5782 5784 5786 5787 5789 5791 5793 5795 5797 5797 5798 5799 5799 5800 5801 5802 5802 5803 5803 5803 5803 5803 5803 5803 5804 5804 5805 5806 5807 5808 5808 5809 5809 5809 5809 5809 5809 5808
5752 5756 5762 5764 5767 5771 5773 5775 5777 5779 5782 5783 5785 5787 5788 5790 5791 5791 5792 5793 5794 5795 5795 5796 5796 5796 5796 5796 5796 5796 5797 5798 5798 5799 5800 5801 5802 5803 5803 5803 5803 5803 5802 5802
5746 5751 5754 5757 5759 5762 5765 5767 5769 5772 5774 5776 5778 5779 5781 5782 5784 5785 5785 5786 5787 5788 5788 5788 5789 5789 5789 5789 5789 5789 5790 5791 5793 5794 5795 5795 5796 5796 5797 5796 5796 5796 5795 5795
5738 5741 5745 5748 5751 5755 5757 5760 5762 5764 5766 5768 5770 5771 5773 5775 5776 5777 5778 5779 5780 5780 5781 5781 5782 5781 5781 5782 5782 5783 5784 5785 5787 5788 5788 5789 5789 5789 5789 5789 5789 5788 5788 5788
5730 5734 5738 5741 5744 5748 5751 5753 5755 5757 5759 5761 5762 5764 5766 5767 5769 5770 5770 5771 5772 5773 5774 5774 5775 5775 5775 5776 5776 5777 5778 5779 5780 5781 5782 5782 5782 5782 5782 5782 5782 5782 5781 5781
5723 5727 5731 5734 5737 5741 5743 5746 5748 5750 5752 5753 5755 5757 5758 5760 5761 5762 5763 5764 5765 5766 5766 5767 5767 5768 5769 5770 5771 5772 5772 5773 5774 5775 5775 5775 5775 5775 5775 5775 5775 5775 5774 5773
5716 5720 5723 5727 5731 5734 5736 5739 5741 5743 5745 5747 5748 5750 5751 5753 5754 5755 5756 5757 5758 5759 5760 5760 5761 5762 5763 5764 5765 5766 5766 5767 5767 5768 5769 5769 5769 5769 5768 5768 5767 5767 5766 5765
5709 5713 5717 5721 5724 5727 5730 5732 5735 5737 5738 5740 5742 5743 5745 5746 5747 5749 5750 5751 5752 5753 5754 5755 5755 5756 5757 5758 5759 5760 5760 5761 5761 5762 5762 5762 5762 5762 5762 5761 5760 5759 5759 5757
5704 5707 5711 5714 5717 5720 5723 5726 5728 5730 5732 5734 5735 5737 5738 5740 5741 5742 5744 5745 5746 5747 5748 5749 5750 5751 5752 5753 5753 5754 5754 5755 5755 5756 5756 5756 5755 5755 5755 5754 5753 5752 5751 5749
5698 5701 5705 5708 5711 5715 5717 5720 5722 5724 5726 5728 5730 5731 5733 5734 5736 5737 5738 5739 5741 5742 5743 5744 5745 5746 5747 5748 5748 5748 5748 5749 5749 5750 5749 5749 5749 5748 5748 5747 5745 5744 5742 5741
5693 5697 5700 5703 5706 5709 5712 5715 5717 5719 5721 5723 5725 5726 5728 5729 5731 5733 5734 5735 5737 5737 5738 5739 5740 5741 5742 5742 5743 5743 5743 5743 5744 5744 5743 5743 5742 5741 5740 5739 5737 5736 5734 5731
5689 5693 5696 5699 5702 5705 5707 5710 5712 5715 5717 5719 5721 5722 5724 5726 5728 5729 5730 5732 5733 5734 5734 5735 5736 5737 5738 5738 5738 5738 5738 5738 5738 5738 5737 5736 5735 5734 5733 5731 5729 5727 5725 5722
5685 5689 5693 5696 5699 5701 5704 5706 5709 5711 5714 5716 5717 5719 5721 5723 5724 5726 5727 5728 5729 5730 5731 5732 5732 5733 5733 5733 5734 5734 5733 5733 5733 5732 5731 5730 5729 5727 5725 5723 5721 5719 5716 5713
5682 5686 5689 5693 5696 5698 5701 5703 5706 5709 5711 5713 5715 5717 5718 5720 5721 5723 5724 5725 5726 5727 5727 5728 5728 5729 5729 5729 5729 5728 5728 5727 5727 5726 5725 5723 5722 5720 5717 5715 5713 5710 5707 5704
5681 5684 5687 5690 5693 5696 5699 5702 5704 5707 5709 5711 5713 5714 5716 5717 5719 5720 5721 5722 5723 5723 5724 5724 5724 5725 5725 5724 5724 5723 5723 5722 5721 5719 5718 5716 5714 5712 5710 5707 5704 5701 5698 5694
5679 5683 5686 5689 5692 5695 5697 5700 5703 5705 5707 5709 5711 5712 5714 5715 5716 5717 5718 5719 5720 5720 5720 5720 5721 5721 5720 5720 5719 5718 5717 5716 5714 5712 5711 5708 5706 5704 5701 5698 5695 5692 5688 5685
5679 5682 5686 5689 5692 5694 5697 5699 5702 5704 5706 5707 5709 5711 5712 5713 5714 5715 5716 5716 5717 5717 5717 5717 5717 5716 5715 5715 5713 5712 5711 5709 5707 5705 5703 5700 5698 5695 5692 5689 5686 5683 5679 5676
5680 5683 5686 5689 5692 5694 5697 5699 5701 5703 5705 5706 5708 5709 5710 5711 5712 5713 5713 5714 5714 5714 5714 5713 5712 5711 5710 5709 5707 5705 5704 5702 5700 5697 5695 5692 5689 5687 5684 5681 5677 5674 5671 5667
5680 5683 5686 5689 5692 5694 5697 5698 5700 5702 5704 5705 5707 5708 5708 5709 5710 5710 5710 5710 5710 5710 5709 5708 5707 5705 5704 5702 5700 5698 5696 5694 5692 5689 5687 5684 5681 5678 5675 5672 5669 5666 5663 5659
5682 5684 5687 5690 5692 5694 5696 5698 5700 5701 5702 5703 5705 5705 5706 5706 5707 5707 5707 5706 5706 5705 5704 5702 5701 5699 5697 5695 5693 5691 5689 5687 5684 5682 5679 5676 5673 5670 5667 5664 5661 5658 5655 5652
5683 5685 5687 5690 5692 5694 5695 5697 5699 5700 5701 5702 5702 5703 5703 5703 5703 5703 5702 5701 5700 5699 5697 5696 5694 5692 5690 5688 5686 5684 5681 5679 5676 5674 5671 5668 5665 5663 5660 5657 5654 5651 5648 5645